| time (UTC) | temp F | wind direction | speed MPH | gust MPH | rain 1hr in | rain 24hr in | rain mn in | humidity % | barometer mb |
| 20260906152549 | 81 | 42 | 2.0 | 8.0 | 0.00 | 0.36 | 0.00 | 77 | 1012.8 |
| 20260906152044 | 80 | 22 | 4.0 | 9.0 | 0.00 | 0.36 | 0.00 | 78 | 1012.7 |
| 20260906151546 | 80 | 106 | 5.0 | 9.0 | 0.00 | 0.36 | 0.00 | 78 | 1012.7 |
| 20260906151042 | 80 | 113 | 3.0 | 7.0 | 0.00 | 0.36 | 0.00 | 79 | 1012.7 |
| 20260906150540 | 81 | 89 | 1.0 | 6.0 | 0.00 | 0.36 | 0.00 | 76 | 1012.8 |
| 20260906150039 | 82 | 93 | 1.0 | 4.0 | 0.00 | 0.36 | 0.00 | 78 | 1012.9 |
| 20260906145540 | 82 | 10 | 1.0 | 2.0 | 0.00 | 0.36 | 0.00 | 77 | 1012.8 |
| 20260906145036 | 82 | 46 | 1.0 | 3.0 | 0.00 | 0.36 | 0.00 | 77 | 1012.8 |
| 20260906144535 | 81 | 0 | 1.0 | 3.0 | 0.00 | 0.36 | 0.00 | 78 | 1012.9 |
| 20260906144033 | 81 | 346 | 1.0 | 3.0 | 0.00 | 0.36 | 0.00 | 79 | 1012.7 |
| 20260906144019 | 80 | 352 | 1.0 | 3.0 | 0.00 | 0.36 | 0.00 | 79 | 1012.7 |
| 20260906143636 | 80 | 352 | 1.0 | 3.0 | 0.00 | 0.36 | 0.00 | 79 | 1012.7 |
| 20260906143030 | 80 | 19 | 1.0 | 3.0 | 0.00 | 0.36 | 0.00 | 81 | 1012.7 |
| 20260906142743 | 80 | 336 | 1.0 | 3.0 | 0.00 | 0.36 | 0.00 | 81 | 1012.6 |
| 20260906142631 | 80 | 336 | 1.0 | 3.0 | 0.00 | 0.36 | 0.00 | 81 | 1012.6 |
| 20260906142502 | 81 | 0 | 0.0 | 2.0 | 0.00 | 0.36 | 0.00 | 80 | 1012.5 |
| 20260906142129 | 81 | 0 | 0.0 | 2.0 | 0.00 | 0.36 | 0.00 | 80 | 1012.5 |
| 20260906141525 | 80 | 0 | 1.0 | 3.0 | 0.00 | 0.36 | 0.00 | 82 | 1012.5 |
| 20260906141021 | 79 | 352 | 1.0 | 3.0 | 0.00 | 0.36 | 0.00 | 82 | 1012.4 |
| 20260906140523 | 79 | 330 | 1.0 | 5.0 | 0.00 | 0.36 | 0.00 | 83 | 1012.3 |
| 20260906140019 | 78 | 42 | 2.0 | 5.0 | 0.00 | 0.36 | 0.00 | 85 | 1012.1 |
| 20260906135519 | 78 | 94 | 2.0 | 5.0 | 0.00 | 0.36 | 0.00 | 85 | 1012.1 |
| 20260906135018 | 77 | 0 | 2.0 | 6.0 | 0.00 | 0.36 | 0.00 | 87 | 1012.1 |
| 20260906134515 | 77 | 8 | 2.0 | 7.0 | 0.00 | 0.36 | 0.00 | 87 | 1012.1 |
| 20260906134013 | 77 | 0 | 3.0 | 7.0 | 0.00 | 0.36 | 0.00 | 88 | 1012.1 |
| 20260906133736 | 77 | 83 | 4.0 | 8.0 | 0.00 | 0.36 | 0.00 | 87 | 1012.1 |
| 20260906133617 | 77 | 83 | 4.0 | 8.0 | 0.00 | 0.36 | 0.00 | 87 | 1012.1 |
| 20260906133010 | 77 | 105 | 3.0 | 8.0 | 0.00 | 0.36 | 0.00 | 87 | 1012.1 |
| 20260906132510 | 77 | 53 | 0.0 | 2.0 | 0.00 | 0.36 | 0.00 | 88 | 1012.1 |
| 20260906132014 | 76 | 0 | 1.0 | 4.0 | 0.00 | 0.36 | 0.00 | 89 | 1012.2 |
| 20260906131502 | 76 | 0 | 2.0 | 5.0 | 0.00 | 0.36 | 0.00 | 90 | 1012.3 |
| 20260906130959 | 76 | 77 | 1.0 | 5.0 | 0.00 | 0.36 | 0.00 | 90 | 1012.2 |
| 20260906130447 | 75 | 0 | 0.0 | 2.0 | 0.00 | 0.36 | 0.00 | 92 | 1012.2 |
| 20260906125927 | 75 | 0 | 0.0 | 2.0 | 0.00 | 0.36 | 0.00 | 93 | 1012.2 |
| 20260906125413 | 75 | 0 | 1.0 | 2.0 | 0.00 | 0.36 | 0.00 | 94 | 1012.3 |
| 20260906124913 | 74 | 58 | 1.0 | 2.0 | 0.00 | 0.36 | 0.00 | 95 | 1012.3 |
| 20260906124358 | 74 | 79 | 0.0 | 2.0 | 0.00 | 0.36 | 0.00 | 95 | 1012.2 |
| 20260906123845 | 74 | 6 | 0.0 | 2.0 | 0.00 | 0.36 | 0.00 | 96 | 1012.1 |
| 20260906123601 | 74 | 0 | 0.0 | 2.0 | 0.00 | 0.36 | 0.00 | 96 | 1012.0 |
| 20260906123447 | 74 | 0 | 0.0 | 2.0 | 0.00 | 0.36 | 0.00 | 96 | 1012.0 |
| 20260906122842 | 74 | 350 | 1.0 | 5.0 | 0.00 | 0.36 | 0.00 | 96 | 1011.9 |
| 20260906122342 | 73 | 309 | 1.0 | 5.0 | 0.00 | 0.36 | 0.00 | 96 | 1011.9 |
| 20260906121834 | 73 | 84 | 1.0 | 5.0 | 0.00 | 0.36 | 0.00 | 97 | 1011.8 |
| 20260906121331 | 73 | 0 | 0.0 | 3.0 | 0.00 | 0.36 | 0.00 | 97 | 1011.9 |
| 20260906121036 | 73 | 37 | 0.0 | 3.0 | 0.00 | 0.36 | 0.00 | 97 | 1011.8 |
| 20260906120917 | 73 | 37 | 0.0 | 3.0 | 0.00 | 0.36 | 0.00 | 97 | 1011.8 |
| 20260906120311 | 73 | 0 | 0.0 | 1.0 | 0.00 | 0.36 | 0.00 | 97 | 1011.7 |
| 20260906120026 | 73 | 32 | 0.0 | 1.0 | 0.00 | 0.36 | 0.00 | 97 | 1011.6 |
| 20260906115907 | 73 | 32 | 0.0 | 1.0 | 0.00 | 0.36 | 0.00 | 97 | 1011.6 |
| 20260906115245 | 73 | 0 | 1.0 | 4.0 | 0.00 | 0.36 | 0.00 | 97 | 1011.5 |
| 20260906114734 | 73 | 76 | 1.0 | 4.0 | 0.00 | 0.36 | 0.00 | 97 | 1011.5 |
| 20260906114227 | 73 | 0 | 0.0 | 1.0 | 0.00 | 0.36 | 0.00 | 97 | 1011.5 |
| 20260906113716 | 73 | 0 | 0.0 | 2.0 | 0.00 | 0.36 | 0.00 | 97 | 1011.4 |
| 20260906113428 | 72 | 0 | 0.0 | 2.0 | 0.00 | 0.36 | 0.00 | 97 | 1011.4 |
| 20260906113308 | 72 | 0 | 0.0 | 2.0 | 0.00 | 0.36 | 0.00 | 97 | 1011.4 |
| 20260906112647 | 72 | 0 | 0.0 | 1.0 | 0.00 | 0.36 | 0.00 | 97 | 1011.4 |
| 20260906112407 | 72 | 0 | 0.0 | 1.0 | 0.00 | 0.36 | 0.00 | 97 | 1011.3 |
| 20260906112251 | 72 | 0 | 0.0 | 1.0 | 0.00 | 0.36 | 0.00 | 97 | 1011.3 |
| 20260906111631 | 72 | 0 | 0.0 | 1.0 | 0.00 | 0.36 | 0.00 | 97 | 1011.3 |
| 20260906111335 | 72 | 0 | 0.0 | 1.0 | 0.00 | 0.36 | 0.00 | 97 | 1011.2 |
| 20260906111219 | 72 | 0 | 0.0 | 1.0 | 0.00 | 0.36 | 0.00 | 97 | 1011.2 |
| 20260906110613 | 72 | 0 | 0.0 | 1.0 | 0.00 | 0.36 | 0.00 | 97 | 1011.1 |
| 20260906110113 | 72 | 0 | 0.0 | 1.0 | 0.00 | 0.36 | 0.00 | 97 | 1011.1 |
| 20260906110059 | 72 | 0 | 0.0 | 1.0 | 0.00 | 0.36 | 0.00 | 97 | 1011.1 |
| 20260906105720 | 72 | 0 | 0.0 | 1.0 | 0.00 | 0.36 | 0.00 | 97 | 1011.1 |
| 20260906105336 | 73 | 34 | 0.0 | 1.0 | 0.00 | 0.36 | 0.00 | 97 | 1011.1 |
| 20260906105217 | 73 | 34 | 0.0 | 1.0 | 0.00 | 0.36 | 0.00 | 97 | 1011.1 |
| 20260906104601 | 73 | 352 | 0.0 | 1.0 | 0.00 | 0.36 | 0.00 | 97 | 1011.1 |
| 20260906104047 | 73 | 0 | 0.0 | 1.0 | 0.00 | 0.36 | 0.00 | 97 | 1011.0 |
| 20260906103535 | 73 | 44 | 0.0 | 1.0 | 0.00 | 0.36 | 0.00 | 97 | 1011.0 |
| 20260906103033 | 73 | 289 | 0.0 | 1.0 | 0.00 | 0.36 | 0.00 | 97 | 1011.0 |
| 20260906102729 | 73 | 188 | 0.0 | 1.0 | 0.00 | 0.36 | 0.00 | 97 | 1010.9 |
| 20260906102607 | 73 | 188 | 0.0 | 1.0 | 0.00 | 0.36 | 0.00 | 97 | 1010.9 |
| 20260906102004 | 73 | 0 | 0.0 | 0.0 | 0.00 | 0.36 | 0.00 | 97 | 1010.8 |
| 20260906101446 | 73 | 0 | 0.0 | 1.0 | 0.00 | 0.36 | 0.00 | 97 | 1010.7 |
| 20260906100933 | 73 | 0 | 0.0 | 2.0 | 0.00 | 0.36 | 0.00 | 97 | 1010.6 |
| 20260906100418 | 73 | 85 | 0.0 | 2.0 | 0.00 | 0.36 | 0.00 | 97 | 1010.6 |
| 20260906100136 | 73 | 0 | 0.0 | 1.0 | 0.00 | 0.36 | 0.00 | 97 | 1010.4 |
| 20260906100018 | 73 | 0 | 0.0 | 1.0 | 0.00 | 0.36 | 0.00 | 97 | 1010.4 |
| 20260906095405 | 73 | 0 | 0.0 | 0.0 | 0.00 | 0.36 | 0.00 | 97 | 1010.2 |
| 20260906094847 | 73 | 0 | 0.0 | 0.0 | 0.00 | 0.36 | 0.00 | 97 | 1010.3 |
| 20260906094333 | 73 | 0 | 0.0 | 1.0 | 0.00 | 0.36 | 0.00 | 97 | 1010.2 |
| 20260906093817 | 73 | 0 | 0.0 | 1.0 | 0.00 | 0.36 | 0.00 | 97 | 1010.2 |
| 20260906093306 | 73 | 65 | 0.0 | 1.0 | 0.00 | 0.36 | 0.00 | 97 | 1010.1 |
| 20260906092747 | 73 | 0 | 0.0 | 1.0 | 0.00 | 0.36 | 0.00 | 97 | 1010.2 |
| 20260906092232 | 73 | 88 | 0.0 | 1.0 | 0.00 | 0.36 | 0.00 | 97 | 1010.1 |
| 20260906091723 | 73 | 0 | 0.0 | 0.0 | 0.00 | 0.36 | 0.00 | 97 | 1010.1 |
| 20260906091204 | 73 | 0 | 0.0 | 0.0 | 0.00 | 0.36 | 0.00 | 97 | 1010.2 |
| 20260906090649 | 73 | 0 | 0.0 | 2.0 | 0.00 | 0.36 | 0.00 | 97 | 1010.2 |
| 20260906090139 | 74 | 59 | 0.0 | 2.0 | 0.00 | 0.36 | 0.00 | 97 | 1010.1 |
| 20260906085858 | 74 | 0 | 0.0 | 0.0 | 0.00 | 0.36 | 0.00 | 97 | 1010.1 |
| 20260906085738 | 74 | 0 | 0.0 | 0.0 | 0.00 | 0.36 | 0.00 | 97 | 1010.1 |
| 20260906085123 | 74 | 0 | 0.0 | 1.0 | 0.00 | 0.36 | 0.00 | 97 | 1010.1 |
| 20260906084617 | 74 | 0 | 0.0 | 1.0 | 0.00 | 0.36 | 0.00 | 97 | 1010.0 |
| 20260906084121 | 74 | 0 | 0.0 | 1.0 | 0.00 | 0.36 | 0.00 | 97 | 1010.0 |
| 20260906083630 | 74 | 2 | 0.0 | 1.0 | 0.00 | 0.36 | 0.00 | 97 | 1009.9 |
| 20260906083106 | 74 | 189 | 0.0 | 1.0 | 0.00 | 0.36 | 0.00 | 97 | 1009.8 |
| 20260906082555 | 74 | 0 | 0.0 | 1.0 | 0.00 | 0.36 | 0.00 | 97 | 1009.7 |
| 20260906082049 | 74 | 54 | 0.0 | 1.0 | 0.00 | 0.36 | 0.00 | 97 | 1009.7 |
| 20260906081810 | 74 | 64 | 0.0 | 1.0 | 0.00 | 0.36 | 0.00 | 97 | 1009.7 |
| 20260906081656 | 74 | 64 | 0.0 | 1.0 | 0.00 | 0.36 | 0.00 | 97 | 1009.7 |
| 20260906081051 | 74 | 0 | 0.0 | 1.0 | 0.00 | 0.36 | 0.00 | 97 | 1009.7 |
| 20260906080540 | 74 | 63 | 0.0 | 1.0 | 0.00 | 0.36 | 0.00 | 97 | 1009.6 |
| 20260906080024 | 74 | 0 | 0.0 | 3.0 | 0.00 | 0.36 | 0.00 | 97 | 1009.6 |
| 20260906075518 | 74 | 46 | 0.0 | 3.0 | 0.00 | 0.36 | 0.00 | 97 | 1009.5 |
| 20260906075021 | 74 | 0 | 0.0 | 1.0 | 0.00 | 0.36 | 0.00 | 97 | 1009.4 |
| 20260906074521 | 74 | 98 | 0.0 | 1.0 | 0.00 | 0.36 | 0.00 | 97 | 1009.4 |
| 20260906074232 | 74 | 0 | 0.0 | 1.0 | 0.00 | 0.36 | 0.00 | 97 | 1009.3 |
| 20260906074113 | 74 | 0 | 0.0 | 1.0 | 0.00 | 0.36 | 0.00 | 97 | 1009.3 |
| 20260906073452 | 74 | 0 | 0.0 | 1.0 | 0.00 | 0.36 | 0.00 | 97 | 1009.4 |
| 20260906072939 | 74 | 0 | 0.0 | 1.0 | 0.00 | 0.36 | 0.00 | 97 | 1009.4 |
| 20260906072423 | 74 | 0 | 0.0 | 3.0 | 0.00 | 0.36 | 0.00 | 97 | 1009.3 |
| 20260906071919 | 74 | 62 | 0.0 | 3.0 | 0.00 | 0.36 | 0.00 | 97 | 1009.4 |
| 20260906071420 | 74 | 0 | 0.0 | 1.0 | 0.00 | 0.36 | 0.00 | 97 | 1009.4 |
| 20260906070910 | 74 | 333 | 0.0 | 1.0 | 0.00 | 0.36 | 0.00 | 97 | 1009.5 |
| 20260906070614 | 74 | 0 | 0.0 | 0.0 | 0.00 | 0.36 | 0.00 | 97 | 1009.4 |
| 20260906070459 | 74 | 0 | 0.0 | 0.0 | 0.00 | 0.36 | 0.00 | 97 | 1009.4 |
| 20260906065840 | 74 | 0 | 0.0 | 0.0 | 0.00 | 0.36 | 0.00 | 97 | 1009.4 |
| 20260906065335 | 73 | 0 | 0.0 | 0.0 | 0.00 | 0.36 | 0.00 | 97 | 1009.4 |
| 20260906064837 | 73 | 0 | 0.0 | 0.0 | 0.00 | 0.36 | 0.00 | 97 | 1009.4 |
| 20260906064337 | 73 | 0 | 0.0 | 0.0 | 0.00 | 0.36 | 0.00 | 97 | 1009.5 |
| 20260906063823 | 73 | 0 | 0.0 | 0.0 | 0.00 | 0.36 | 0.00 | 97 | 1009.6 |
| 20260906063309 | 73 | 0 | 0.0 | 0.0 | 0.00 | 0.36 | 0.00 | 97 | 1009.6 |
| 20260906062753 | 73 | 0 | 0.0 | 0.0 | 0.00 | 0.36 | 0.00 | 97 | 1009.5 |
| 20260906062240 | 73 | 0 | 0.0 | 1.0 | 0.00 | 0.36 | 0.00 | 97 | 1009.6 |
| 20260906061739 | 73 | 0 | 0.0 | 1.0 | 0.00 | 0.36 | 0.00 | 97 | 1009.5 |
| 20260906061226 | 73 | 0 | 0.0 | 1.0 | 0.00 | 0.36 | 0.00 | 97 | 1009.5 |
| 20260906060708 | 73 | 0 | 0.0 | 0.0 | 0.00 | 0.36 | 0.00 | 97 | 1009.6 |
| 20260906060152 | 73 | 0 | 0.0 | 1.0 | 0.00 | 0.36 | 0.00 | 97 | 1009.8 |
| 20260906055650 | 73 | 0 | 0.0 | 1.0 | 0.00 | 0.36 | 0.00 | 97 | 1009.8 |
| 20260906055150 | 73 | 0 | 0.0 | 0.0 | 0.00 | 0.36 | 0.00 | 97 | 1009.8 |
| 20260906054635 | 73 | 0 | 0.0 | 0.0 | 0.00 | 0.36 | 0.00 | 97 | 1009.8 |
| 20260906054135 | 73 | 0 | 0.0 | 0.0 | 0.00 | 0.36 | 0.00 | 97 | 1009.8 |
| 20260906053633 | 73 | 0 | 0.0 | 0.0 | 0.00 | 0.36 | 0.00 | 97 | 1010.0 |
| 20260906053133 | 73 | 0 | 0.0 | 0.0 | 0.00 | 0.36 | 0.00 | 97 | 1010.0 |
| 20260906052630 | 73 | 0 | 0.0 | 1.0 | 0.00 | 0.36 | 0.00 | 97 | 1010.0 |
| 20260906052128 | 73 | 0 | 0.0 | 1.0 | 0.00 | 0.36 | 0.00 | 97 | 1010.1 |
| 20260906051852 | 73 | 0 | 0.0 | 0.0 | 0.00 | 0.36 | 0.00 | 97 | 1010.2 |
| 20260906051731 | 73 | 0 | 0.0 | 0.0 | 0.00 | 0.36 | 0.00 | 97 | 1010.2 |
| 20260906051126 | 73 | 0 | 0.0 | 0.0 | 0.00 | 0.36 | 0.00 | 97 | 1010.3 |
| 20260906050623 | 73 | 0 | 0.0 | 1.0 | 0.00 | 0.36 | 0.00 | 97 | 1010.4 |
| 20260906050122 | 73 | 0 | 0.0 | 1.0 | 0.00 | 0.36 | 0.00 | 97 | 1010.4 |
| 20260906050109 | 73 | 0 | 0.0 | 2.0 | 0.00 | 0.36 | 0.00 | 97 | 1010.4 |
| 20260906045724 | 73 | 0 | 0.0 | 2.0 | 0.00 | 0.36 | 0.00 | 97 | 1010.4 |
| 20260906045120 | 73 | 0 | 0.0 | 2.0 | 0.00 | 0.36 | 0.00 | 97 | 1010.4 |
| 20260906044617 | 73 | 0 | 0.0 | 1.0 | 0.00 | 0.36 | 0.00 | 97 | 1010.5 |
| 20260906044119 | 73 | 0 | 0.0 | 2.0 | 0.00 | 0.36 | 0.00 | 97 | 1010.5 |
| 20260906043615 | 73 | 0 | 0.0 | 2.0 | 0.00 | 0.36 | 0.00 | 97 | 1010.4 |
| 20260906043113 | 73 | 233 | 0.0 | 2.0 | 0.00 | 0.36 | 0.00 | 97 | 1010.3 |
| 20260906042608 | 73 | 221 | 0.0 | 2.0 | 0.00 | 0.36 | 0.00 | 97 | 1010.3 |
| 20260906042335 | 73 | 0 | 0.0 | 0.0 | 0.00 | 0.36 | 0.00 | 97 | 1010.3 |
| 20260906042213 | 73 | 0 | 0.0 | 0.0 | 0.00 | 0.36 | 0.00 | 97 | 1010.3 |
| 20260906041606 | 73 | 0 | 0.0 | 0.0 | 0.00 | 0.36 | 0.00 | 97 | 1010.3 |
| 20260906041107 | 73 | 0 | 0.0 | 0.0 | 0.00 | 0.36 | 0.00 | 97 | 1010.3 |
| 20260906040605 | 73 | 0 | 0.0 | 0.0 | 0.00 | 0.36 | 0.00 | 97 | 1010.2 |
| 20260906040105 | 73 | 0 | 0.0 | 1.0 | 0.00 | 0.36 | 0.00 | 97 | 1010.3 |
| 20260906035816 | 73 | 0 | 0.0 | 1.0 | 0.00 | 0.36 | 0.36 | 97 | 1010.4 |
| 20260906035705 | 73 | 0 | 0.0 | 1.0 | 0.00 | 0.36 | 0.36 | 97 | 1010.4 |
| 20260906035059 | 73 | 0 | 0.0 | 2.0 | 0.00 | 0.36 | 0.36 | 97 | 1010.5 |
| 20260906034825 | 73 | 0 | 0.0 | 2.0 | 0.00 | 0.36 | 0.36 | 97 | 1010.5 |
| 20260906034700 | 73 | 0 | 0.0 | 2.0 | 0.00 | 0.36 | 0.36 | 97 | 1010.5 |
| 20260906034055 | 73 | 0 | 0.0 | 2.0 | 0.00 | 0.36 | 0.36 | 97 | 1010.5 |
| 20260906033555 | 73 | 0 | 0.0 | 2.0 | 0.00 | 0.36 | 0.36 | 97 | 1010.5 |
| 20260906033055 | 74 | 0 | 0.0 | 1.0 | 0.00 | 0.36 | 0.36 | 97 | 1010.5 |
| 20260906032559 | 74 | 0 | 0.0 | 1.0 | 0.00 | 0.36 | 0.36 | 97 | 1010.5 |
| 20260906032053 | 74 | 0 | 0.0 | 0.0 | 0.00 | 0.36 | 0.36 | 97 | 1010.5 |
| 20260906031553 | 74 | 0 | 0.0 | 2.0 | 0.00 | 0.36 | 0.36 | 97 | 1010.5 |
| 20260906031049 | 74 | 0 | 0.0 | 2.0 | 0.00 | 0.36 | 0.36 | 97 | 1010.5 |
| 20260906030549 | 74 | 183 | 0.0 | 2.0 | 0.00 | 0.36 | 0.36 | 97 | 1010.5 |
| 20260906030320 | 74 | 0 | 0.0 | 2.0 | 0.00 | 0.36 | 0.36 | 97 | 1010.5 |
| 20260906030205 | 74 | 0 | 0.0 | 2.0 | 0.00 | 0.36 | 0.36 | 97 | 1010.5 |
| 20260906025810 | 74 | 0 | 0.0 | 2.0 | 0.00 | 0.36 | 0.36 | 97 | 1010.5 |
| 20260906025652 | 74 | 0 | 0.0 | 2.0 | 0.00 | 0.36 | 0.36 | 97 | 1010.5 |
| 20260906025306 | 74 | 0 | 0.0 | 1.0 | 0.00 | 0.37 | 0.36 | 97 | 1010.6 |
| 20260906025147 | 74 | 0 | 0.0 | 1.0 | 0.00 | 0.37 | 0.36 | 97 | 1010.6 |
| 20260906024543 | 74 | 0 | 0.0 | 1.0 | 0.00 | 0.37 | 0.36 | 97 | 1010.6 |
| 20260906024305 | 74 | 0 | 0.0 | 2.0 | 0.00 | 0.38 | 0.36 | 97 | 1010.6 |
| 20260906024146 | 74 | 0 | 0.0 | 2.0 | 0.00 | 0.38 | 0.36 | 97 | 1010.6 |
| 20260906023543 | 74 | 0 | 0.0 | 2.0 | 0.00 | 0.47 | 0.36 | 97 | 1010.7 |
| 20260906023311 | 74 | 0 | 0.0 | 1.0 | 0.00 | 0.60 | 0.36 | 97 | 1010.7 |
| 20260906023156 | 74 | 0 | 0.0 | 1.0 | 0.00 | 0.60 | 0.36 | 97 | 1010.7 |
| 20260906022806 | 74 | 0 | 0.0 | 1.0 | 0.00 | 0.83 | 0.36 | 97 | 1010.6 |
| 20260906022641 | 74 | 0 | 0.0 | 1.0 | 0.00 | 0.83 | 0.36 | 97 | 1010.6 |
| 20260906022035 | 74 | 0 | 0.0 | 0.0 | 0.00 | 0.93 | 0.36 | 97 | 1010.7 |
| 20260906021534 | 73 | 0 | 0.0 | 0.0 | 0.00 | 0.97 | 0.36 | 96 | 1010.7 |
| 20260906021033 | 73 | 0 | 0.0 | 0.0 | 0.00 | 0.98 | 0.36 | 96 | 1010.6 |
| 20260906020804 | 73 | 0 | 0.0 | 0.0 | 0.00 | 0.98 | 0.36 | 96 | 1010.6 |
| 20260906020640 | 73 | 0 | 0.0 | 0.0 | 0.00 | 0.98 | 0.36 | 96 | 1010.6 |
| 20260906020030 | 73 | 0 | 0.0 | 0.0 | 0.00 | 0.98 | 0.36 | 96 | 1010.6 |
| 20260906015527 | 73 | 0 | 0.0 | 1.0 | 0.00 | 0.99 | 0.36 | 96 | 1010.6 |
| 20260906015025 | 74 | 0 | 0.0 | 1.0 | 0.00 | 0.99 | 0.36 | 96 | 1010.6 |
| 20260906014525 | 74 | 0 | 0.0 | 1.0 | 0.00 | 1.00 | 0.36 | 96 | 1010.7 |
| 20260906014249 | 74 | 0 | 0.0 | 0.0 | 0.00 | 1.00 | 0.36 | 96 | 1010.6 |
| 20260906014127 | 74 | 0 | 0.0 | 0.0 | 0.00 | 1.00 | 0.36 | 96 | 1010.6 |
| 20260906013524 | 74 | 0 | 0.0 | 1.0 | 0.00 | 1.00 | 0.36 | 96 | 1010.4 |
| 20260906013245 | 74 | 40 | 0.0 | 1.0 | 0.00 | 1.01 | 0.36 | 96 | 1010.4 |
| 20260906013124 | 74 | 40 | 0.0 | 1.0 | 0.00 | 1.01 | 0.36 | 96 | 1010.4 |
| 20260906012520 | 74 | 0 | 0.0 | 1.0 | 0.00 | 1.02 | 0.36 | 96 | 1010.3 |
| 20260906012018 | 74 | 0 | 0.0 | 1.0 | 0.00 | 1.03 | 0.36 | 96 | 1010.3 |
| 20260906011516 | 74 | 230 | 0.0 | 1.0 | 0.00 | 1.04 | 0.36 | 96 | 1010.3 |
| 20260906011014 | 74 | 0 | 0.0 | 2.0 | 0.00 | 1.04 | 0.36 | 96 | 1010.3 |
| 20260906010526 | 74 | 0 | 0.0 | 2.0 | 0.00 | 1.04 | 0.36 | 96 | 1010.3 |
| 20260906010011 | 74 | 0 | 0.0 | 0.0 | 0.00 | 1.04 | 0.36 | 96 | 1010.2 |
| 20260906005509 | 74 | 0 | 0.0 | 2.0 | 0.00 | 1.04 | 0.36 | 96 | 1010.2 |
| 20260906005005 | 74 | 0 | 0.0 | 2.0 | 0.00 | 1.04 | 0.36 | 96 | 1010.1 |
| 20260906004729 | 73 | 0 | 0.0 | 0.0 | 0.00 | 1.04 | 0.36 | 96 | 1010.0 |
| 20260906004607 | 73 | 0 | 0.0 | 0.0 | 0.00 | 1.04 | 0.36 | 96 | 1010.0 |
| 20260906004006 | 73 | 0 | 0.0 | 1.0 | 0.00 | 1.04 | 0.36 | 96 | 1009.9 |
| 20260906003459 | 73 | 0 | 0.0 | 1.0 | 0.00 | 1.04 | 0.36 | 96 | 1010.0 |
| 20260906002959 | 73 | 0 | 0.0 | 0.0 | 0.00 | 1.04 | 0.36 | 96 | 1010.0 |
| 20260906002456 | 73 | 0 | 0.0 | 0.0 | 0.00 | 1.04 | 0.36 | 96 | 1009.9 |
| 20260906001957 | 73 | 0 | 0.0 | 0.0 | 0.00 | 1.04 | 0.36 | 96 | 1009.8 |
| 20260906001455 | 73 | 0 | 0.0 | 0.0 | 0.00 | 1.04 | 0.36 | 96 | 1009.8 |
| 20260906001218 | 73 | 0 | 0.0 | 1.0 | 0.00 | 1.04 | 0.36 | 96 | 1009.9 |
| 20260906001057 | 73 | 0 | 0.0 | 1.0 | 0.00 | 1.04 | 0.36 | 96 | 1009.9 |
| 20260906000712 | 73 | 0 | 0.0 | 2.0 | 0.00 | 1.04 | 0.36 | 96 | 1009.9 |
| 20260906000556 | 73 | 0 | 0.0 | 2.0 | 0.00 | 1.04 | 0.36 | 96 | 1009.9 |
| 20260905235950 | 73 | 0 | 0.0 | 2.0 | 0.00 | 1.04 | 0.36 | 96 | 1009.7 |
| 20260905235718 | 73 | 231 | 0.0 | 2.0 | 0.00 | 1.04 | 0.36 | 96 | 1009.5 |
| 20260905235553 | 73 | 231 | 0.0 | 2.0 | 0.00 | 1.04 | 0.36 | 96 | 1009.5 |
| 20260905234950 | 73 | 239 | 0.0 | 1.0 | 0.00 | 1.04 | 0.36 | 96 | 1009.3 |
| 20260905234446 | 73 | 0 | 0.0 | 2.0 | 0.00 | 1.04 | 0.36 | 96 | 1009.0 |
| 20260905233946 | 73 | 0 | 0.0 | 2.0 | 0.00 | 1.04 | 0.36 | 96 | 1008.8 |
| 20260905233443 | 73 | 0 | 0.0 | 2.0 | 0.00 | 1.04 | 0.36 | 96 | 1008.8 |
| 20260905232941 | 73 | 0 | 0.0 | 2.0 | 0.00 | 1.04 | 0.36 | 96 | 1008.8 |
| 20260905232440 | 73 | 0 | 1.0 | 3.0 | 0.00 | 1.04 | 0.36 | 96 | 1009.1 |
| 20260905231937 | 74 | 226 | 1.0 | 3.0 | 0.00 | 1.04 | 0.36 | 96 | 1009.1 |
| 20260905231658 | 74 | 0 | 0.0 | 1.0 | 0.00 | 1.04 | 0.36 | 96 | 1009.0 |
| 20260905231540 | 74 | 0 | 0.0 | 1.0 | 0.00 | 1.04 | 0.36 | 96 | 1009.0 |
| 20260905230935 | 74 | 0 | 0.0 | 3.0 | 0.00 | 1.04 | 0.36 | 96 | 1008.9 |
| 20260905230429 | 74 | 0 | 0.0 | 3.0 | 0.00 | 1.04 | 0.36 | 96 | 1008.9 |
| 20260905225926 | 74 | 116 | 1.0 | 3.0 | 0.00 | 1.04 | 0.36 | 96 | 1008.8 |
| 20260905225425 | 74 | 75 | 2.0 | 4.0 | 0.00 | 1.04 | 0.36 | 96 | 1008.6 |
| 20260905224924 | 74 | 123 | 1.0 | 4.0 | 0.00 | 1.04 | 0.36 | 96 | 1008.7 |
| 20260905224422 | 74 | 0 | 0.0 | 2.0 | 0.00 | 1.04 | 0.36 | 96 | 1008.7 |
| 20260905223920 | 74 | 0 | 0.0 | 2.0 | 0.00 | 1.04 | 0.36 | 96 | 1008.7 |
| 20260905223419 | 73 | 0 | 0.0 | 2.0 | 0.00 | 1.04 | 0.36 | 96 | 1008.9 |
| 20260905222916 | 73 | 135 | 0.0 | 2.0 | 0.00 | 1.04 | 0.36 | 96 | 1009.0 |
| 20260905222649 | 73 | 0 | 0.0 | 2.0 | 0.00 | 1.04 | 0.36 | 95 | 1008.9 |
| 20260905222524 | 73 | 0 | 0.0 | 2.0 | 0.00 | 1.04 | 0.36 | 95 | 1008.9 |
| 20260905221915 | 73 | 219 | 0.0 | 2.0 | 0.00 | 1.04 | 0.36 | 95 | 1008.5 |
| 20260905221413 | 73 | 0 | 0.0 | 1.0 | 0.00 | 1.04 | 0.36 | 95 | 1008.3 |
| 20260905220912 | 73 | 0 | 0.0 | 1.0 | 0.00 | 1.04 | 0.36 | 95 | 1008.3 |
| 20260905220410 | 73 | 0 | 0.0 | 2.0 | 0.00 | 1.04 | 0.36 | 95 | 1008.4 |
| 20260905215908 | 73 | 0 | 0.0 | 2.0 | 0.01 | 1.04 | 0.36 | 95 | 1008.7 |
| 20260905215406 | 73 | 0 | 0.0 | 2.0 | 0.01 | 1.04 | 0.36 | 95 | 1008.7 |
| 20260905214905 | 73 | 237 | 1.0 | 3.0 | 0.01 | 1.04 | 0.36 | 95 | 1008.7 |
| 20260905214627 | 73 | 137 | 1.0 | 3.0 | 0.01 | 1.04 | 0.36 | 95 | 1008.5 |
| 20260905214510 | 73 | 137 | 1.0 | 3.0 | 0.01 | 1.04 | 0.36 | 95 | 1008.5 |
| 20260905213907 | 72 | 207 | 0.0 | 2.0 | 0.01 | 1.04 | 0.36 | 95 | 1008.5 |
| 20260905213404 | 72 | 0 | 0.0 | 2.0 | 0.01 | 1.04 | 0.36 | 94 | 1008.4 |
| 20260905212905 | 72 | 231 | 1.0 | 2.0 | 0.02 | 1.04 | 0.36 | 94 | 1008.2 |
| 20260905212400 | 72 | 215 | 0.0 | 2.0 | 0.03 | 1.04 | 0.36 | 94 | 1008.1 |
| 20260905211900 | 72 | 0 | 0.0 | 1.0 | 0.07 | 1.04 | 0.36 | 94 | 1008.1 |
| 20260905211358 | 72 | 242 | 0.0 | 1.0 | 0.19 | 1.03 | 0.35 | 93 | 1008.2 |
| 20260905210858 | 72 | 0 | 0.0 | 1.0 | 0.28 | 1.03 | 0.35 | 93 | 1008.3 |
| 20260905210357 | 73 | 0 | 0.0 | 2.0 | 0.35 | 1.03 | 0.35 | 93 | 1008.3 |
| 20260905210117 | 73 | 234 | 0.0 | 2.0 | 0.35 | 1.02 | 0.35 | 92 | 1008.3 |
| 20260905205958 | 73 | 234 | 0.0 | 2.0 | 0.35 | 1.02 | 0.35 | 92 | 1008.3 |
| 20260905205351 | 73 | 0 | 0.0 | 1.0 | 0.35 | 1.02 | 0.35 | 92 | 1008.6 |
| 20260905205112 | 73 | 0 | 0.0 | 2.0 | 0.35 | 1.02 | 0.35 | 91 | 1008.6 |
| 20260905204956 | 73 | 0 | 0.0 | 2.0 | 0.35 | 1.02 | 0.35 | 91 | 1008.6 |
| 20260905204349 | 73 | 0 | 1.0 | 4.0 | 0.35 | 1.02 | 0.35 | 91 | 1008.5 |
| 20260905203847 | 73 | 203 | 2.0 | 4.0 | 0.35 | 1.02 | 0.35 | 90 | 1008.8 |
| 20260905203347 | 74 | 243 | 2.0 | 6.0 | 0.35 | 1.02 | 0.35 | 88 | 1009.1 |
| 20260905203115 | 74 | 159 | 1.0 | 6.0 | 0.34 | 1.02 | 0.34 | 87 | 1008.9 |
| 20260905202949 | 74 | 159 | 1.0 | 6.0 | 0.34 | 1.02 | 0.34 | 87 | 1008.9 |
| 20260905202344 | 75 | 261 | 1.0 | 4.0 | 0.33 | 1.01 | 0.33 | 90 | 1009.0 |
| 20260905201840 | 76 | 47 | 2.0 | 6.0 | 0.28 | 0.96 | 0.28 | 89 | 1009.4 |
| 20260905201337 | 79 | 22 | 1.0 | 6.0 | 0.17 | 0.84 | 0.17 | 85 | 1010.2 |
| 20260905200839 | 83 | 196 | 3.0 | 10.0 | 0.08 | 0.76 | 0.08 | 82 | 1010.5 |
| 20260905200336 | 88 | 325 | 3.0 | 10.0 | 0.00 | 0.68 | 0.00 | 69 | 1009.8 |
| 20260905200318 | 91 | 343 | 2.0 | 6.0 | 0.00 | 0.68 | 0.00 | 73 | 1009.6 |
| 20260905195936 | 91 | 343 | 2.0 | 6.0 | 0.00 | 0.68 | 0.00 | 73 | 1009.6 |
| 20260905195327 | 92 | 327 | 0.0 | 2.0 | 0.00 | 0.68 | 0.00 | 67 | 1008.6 |
| 20260905194824 | 93 | 0 | 0.0 | 2.0 | 0.00 | 0.68 | 0.00 | 65 | 1007.9 |
| 20260905194321 | 93 | 0 | 0.0 | 3.0 | 0.00 | 0.68 | 0.00 | 62 | 1008.1 |
| 20260905193820 | 93 | 16 | 1.0 | 3.0 | 0.00 | 0.68 | 0.00 | 62 | 1008.2 |
| 20260905193318 | 94 | 44 | 1.0 | 4.0 | 0.00 | 0.68 | 0.00 | 59 | 1008.0 |
| 20260905192820 | 95 | 59 | 2.0 | 4.0 | 0.00 | 0.68 | 0.00 | 60 | 1008.1 |
| 20260905192317 | 95 | 50 | 1.0 | 4.0 | 0.00 | 0.68 | 0.00 | 58 | 1008.3 |
| 20260905191815 | 96 | 0 | 1.0 | 2.0 | 0.00 | 0.68 | 0.00 | 56 | 1008.4 |
| 20260905191315 | 95 | 0 | 1.0 | 5.0 | 0.00 | 0.68 | 0.00 | 56 | 1008.2 |
| 20260905190815 | 95 | 123 | 1.0 | 5.0 | 0.00 | 0.68 | 0.00 | 55 | 1008.2 |
| 20260905190314 | 94 | 0 | 2.0 | 6.0 | 0.00 | 0.68 | 0.00 | 58 | 1008.3 |
| 20260905185813 | 94 | 0 | 2.0 | 6.0 | 0.00 | 0.68 | 0.00 | 58 | 1008.4 |
| 20260905185310 | 95 | 93 | 3.0 | 6.0 | 0.00 | 0.68 | 0.00 | 58 | 1008.3 |
| 20260905184808 | 95 | 353 | 2.0 | 6.0 | 0.00 | 0.68 | 0.00 | 56 | 1008.3 |
| 20260905184529 | 95 | 109 | 2.0 | 5.0 | 0.00 | 0.68 | 0.00 | 55 | 1008.3 |
| 20260905184413 | 95 | 109 | 2.0 | 5.0 | 0.00 | 0.68 | 0.00 | 55 | 1008.3 |
| 20260905183806 | 96 | 31 | 2.0 | 5.0 | 0.00 | 0.68 | 0.00 | 55 | 1008.4 |
| 20260905183305 | 97 | 102 | 1.0 | 4.0 | 0.00 | 0.68 | 0.00 | 54 | 1008.6 |
| 20260905182816 | 97 | 0 | 1.0 | 2.0 | 0.00 | 0.68 | 0.00 | 52 | 1008.7 |
| 20260905182305 | 96 | 355 | 1.0 | 2.0 | 0.00 | 0.68 | 0.00 | 57 | 1008.7 |
| 20260905181759 | 96 | 283 | 1.0 | 2.0 | 0.00 | 0.68 | 0.00 | 55 | 1008.8 |
| 20260905181520 | 96 | 295 | 1.0 | 3.0 | 0.00 | 0.68 | 0.00 | 54 | 1008.9 |
| 20260905181406 | 96 | 295 | 1.0 | 3.0 | 0.00 | 0.68 | 0.00 | 54 | 1008.9 |
| 20260905181030 | 97 | 334 | 1.0 | 3.0 | 0.00 | 0.68 | 0.00 | 57 | 1008.9 |
| 20260905180902 | 97 | 334 | 1.0 | 3.0 | 0.00 | 0.68 | 0.00 | 57 | 1008.9 |
| 20260905180256 | 97 | 298 | 1.0 | 2.0 | 0.00 | 0.68 | 0.00 | 55 | 1009.1 |
| 20260905175756 | 96 | 335 | 1.0 | 2.0 | 0.00 | 0.68 | 0.00 | 55 | 1009.2 |
| 20260905175254 | 96 | 336 | 1.0 | 2.0 | 0.00 | 0.68 | 0.00 | 59 | 1009.3 |
| 20260905174751 | 96 | 279 | 1.0 | 3.0 | 0.00 | 0.68 | 0.00 | 55 | 1009.4 |
| 20260905174249 | 97 | 242 | 1.0 | 3.0 | 0.00 | 0.68 | 0.00 | 51 | 1009.5 |
| 20260905173749 | 97 | 346 | 1.0 | 3.0 | 0.00 | 0.68 | 0.00 | 52 | 1009.6 |
| 20260905173249 | 97 | 342 | 1.0 | 3.0 | 0.00 | 0.68 | 0.00 | 52 | 1009.7 |
| 20260905172802 | 97 | 313 | 1.0 | 3.0 | 0.00 | 0.68 | 0.00 | 53 | 1009.8 |
| 20260905172248 | 96 | 35 | 1.0 | 3.0 | 0.00 | 0.68 | 0.00 | 53 | 1009.9 |
| 20260905171747 | 96 | 316 | 1.0 | 3.0 | 0.00 | 0.68 | 0.00 | 56 | 1009.9 |
| 20260905171251 | 96 | 322 | 1.0 | 2.0 | 0.00 | 0.68 | 0.00 | 60 | 1010.0 |
| 20260905170747 | 96 | 334 | 1.0 | 2.0 | 0.00 | 0.68 | 0.00 | 53 | 1010.0 |
| 20260905170243 | 96 | 318 | 1.0 | 2.0 | 0.00 | 0.68 | 0.00 | 59 | 1010.0 |
| 20260905165740 | 95 | 336 | 1.0 | 2.0 | 0.00 | 0.68 | 0.00 | 57 | 1010.0 |
| 20260905165241 | 95 | 0 | 1.0 | 3.0 | 0.00 | 0.68 | 0.00 | 62 | 1010.2 |
| 20260905164741 | 95 | 326 | 1.0 | 3.0 | 0.00 | 0.68 | 0.00 | 59 | 1010.2 |
| 20260905164256 | 95 | 304 | 1.0 | 3.0 | 0.00 | 0.68 | 0.00 | 60 | 1010.3 |
| 20260905163738 | 94 | 351 | 1.0 | 3.0 | 0.00 | 0.68 | 0.00 | 58 | 1010.4 |
| 20260905163237 | 95 | 339 | 1.0 | 3.0 | 0.00 | 0.68 | 0.00 | 58 | 1010.4 |
| 20260905163213 | 95 | 298 | 1.0 | 3.0 | 0.00 | 0.68 | 0.00 | 61 | 1010.4 |
| 20260905162839 | 95 | 298 | 1.0 | 3.0 | 0.00 | 0.68 | 0.00 | 61 | 1010.4 |
| 20260905162232 | 95 | 0 | 1.0 | 3.0 | 0.00 | 0.68 | 0.00 | 60 | 1010.5 |
| 20260905161727 | 95 | 331 | 1.0 | 3.0 | 0.00 | 0.68 | 0.00 | 58 | 1010.6 |
| 20260905161227 | 94 | 337 | 1.0 | 3.0 | 0.00 | 0.68 | 0.00 | 61 | 1010.7 |
| 20260905160729 | 94 | 195 | 1.0 | 3.0 | 0.00 | 0.68 | 0.00 | 59 | 1010.8 |
| 20260905160221 | 94 | 313 | 1.0 | 3.0 | 0.00 | 0.68 | 0.00 | 63 | 1010.8 |
| 20260905155721 | 94 | 0 | 1.0 | 4.0 | 0.00 | 0.68 | 0.00 | 61 | 1010.9 |
| 20260905155218 | 93 | 328 | 1.0 | 4.0 | 0.00 | 0.68 | 0.00 | 63 | 1011.0 |
| 20260905154713 | 93 | 334 | 1.0 | 5.0 | 0.00 | 0.68 | 0.00 | 63 | 1011.1 |
| 20260905154433 | 92 | 18 | 1.0 | 5.0 | 0.00 | 0.68 | 0.00 | 66 | 1011.1 |
| 20260905154316 | 92 | 18 | 1.0 | 5.0 | 0.00 | 0.68 | 0.00 | 66 | 1011.1 |
| 20260905153714 | 92 | 305 | 1.0 | 4.0 | 0.00 | 0.68 | 0.00 | 67 | 1011.1 |
| 20260905153210 | 92 | 334 | 2.0 | 4.0 | 0.00 | 0.68 | 0.00 | 65 | 1011.0 |